This is the latest recevied weather packets stored in our database for station/object N5ZP. If no packets are shown the sender has not sent any weather packets the latest 10 day(s).
| Time | Temp. | Humidity | Pressure | Rain* | Wind** | Luminosity | Snow |
|---|---|---|---|---|---|---|---|
| 1777642548 | 13.89° C | 90% | 1013.7 hPa | 0 mm | - | 42 W/m² | - |
| 1777642244 | 13.89° C | 90% | 1013.7 hPa | 0 mm | - | 32 W/m² | - |
| 1777641941 | 13.89° C | 90% | 1013.5 hPa | 0 mm | - | 30 W/m² | - |
| 1777641637 | 13.89° C | 90% | 1013.8 hPa | 0 mm | - | 23 W/m² | - |
| 1777641332 | 13.89° C | 90% | 1013.6 hPa | 0 mm | - | 18 W/m² | - |
| 1777641028 | 13.89° C | 91% | 1013.7 hPa | 0 mm | - | 17 W/m² | - |
| 1777640725 | 13.89° C | 91% | 1013.8 hPa | 0 mm | - | 19 W/m² | - |
| 1777640421 | 13.89° C | 91% | 1013.6 hPa | 0 mm | - | 26 W/m² | - |
| 1777640118 | 13.89° C | 91% | 1013.9 hPa | 0 mm | - | 21 W/m² | - |
| 1777639814 | 13.89° C | 91% | 1013.8 hPa | 0 mm | - | 23 W/m² | - |
| 1777639512 | 13.89° C | 91% | 1013.8 hPa | 0 mm | - | 16 W/m² | - |
| 1777639209 | 13.89° C | 91% | 1013.8 hPa | 0 mm | - | 14 W/m² | - |
| 1777638905 | 13.89° C | 91% | 1013.8 hPa | 0 mm | - | 12 W/m² | - |
| 1777638600 | 13.89° C | 91% | 1013.6 hPa | 0 mm | - | 10 W/m² | - |
| 1777638297 | 13.89° C | 91% | 1013.4 hPa | 0 mm | - | 9 W/m² | - |
| 1777637994 | 13.89° C | 91% | 1013.5 hPa | 0 mm | - | 5 W/m² | - |
| 1777637690 | 13.33° C | 91% | 1013.7 hPa | 0 mm | - | 4 W/m² | - |
| 1777637387 | 13.33° C | 91% | 1014.1 hPa | 0 mm | - | 3 W/m² | - |
| 1777637083 | 13.33° C | 91% | 1013.7 hPa | 0 mm | - | 3 W/m² | - |
| 1777636779 | 13.33° C | 91% | 1013.4 hPa | 0 mm | - | 2 W/m² | - |
| 1777636476 | 13.33° C | 91% | 1013.1 hPa | 0 mm | - | 1 W/m² | - |
| 1777636172 | 13.33° C | 91% | 1012.8 hPa | 0 mm | - | 2 W/m² | - |
| 1777635867 | 13.33° C | 91% | 1012.8 hPa | 0 mm | - | 1 W/m² | - |
| 1777635563 | 13.33° C | 91% | 1012.6 hPa | 0 mm | - | 1 W/m² | - |
| 1777635261 | 13.33° C | 91% | 1012.4 hPa | 0 mm | - | 0 W/m² | - |
* Rain latest hour (hover to see other rain measurements)
** Current wind speed in m/s (hover to see current wind gust speed)